sat.trackr.live / text

‹ back to catalog

STARLINK-4779

NORAD 53864 · 2022-114AY

PAYLOAD ACTIVE UNKNOWN

§ Identity

Operator
Country
US
Launch date
2022-09-19
Launch site
AFETR
Launch vehicle
Mass (kg)
RCS (m²)

Purposes: comms

External: N2YO · Heavens-Above · Gunter

§ Orbital elements

Epoch: 2026-09-20T07:50:43.426464Z

Period
94.01 min
Inclination
53.1590°
Eccentricity
0.0001251
Mean motion
15.31697736 rev/d
Perigee alt
469.9 km
Apogee alt
471.6 km
Semi-major
6,848.9 km
B*
4.4517e-5
RAAN
119.3120°
Arg perigee
95.3271°
Mean anomaly
264.7873°
Rev number
22,264

§ Raw data

STARLINK-47791 53864U 22114AY  26263.32689151  .00001016  00000+0  44517-4 0  99922 53864  53.1590 119.3120 0001251  95.3271 264.7873 15.31697736222645

JSON: /api/v1/satellites/53864 · /tle

For live sub-satellite position, see the globe view (requires WebGL).

§ Visibility from observer

Set your observer location to see the next 7 days of passes ≥ 10°. The values pass through the URL so the page stays shareable.

No JS? Fill the form by hand. The geolocation button needs JavaScript.